timestamp,wind_dir_avg,wind_spd_avg,wind_spd_max_dir,wind_spd_gust,battery_voltage,lat,long
2021-06-15 00:04:01+00:00,202.0,6.02,204.0,6.54,13.37,47.59359,-54.27349
2021-06-15 00:14:01+00:00,206.0,5.87,208.0,6.49,12.81,47.59359,-54.27349
2021-06-15 00:24:01+00:00,209.0,6.01,211.0,6.65,12.81,47.59359,-54.27349
2021-06-15 00:34:01+00:00,204.0,5.3,208.0,6.33,12.81,47.59359,-54.27349
2021-06-15 00:44:01+00:00,193.0,5.1,197.0,5.73,12.81,47.59359,-54.27349
2021-06-15 00:54:01+00:00,193.0,4.6,193.0,5.16,12.81,47.59359,-54.27349
2021-06-15 01:04:01+00:00,199.0,4.35,194.0,6.48,12.81,47.59359,-54.27349
2021-06-15 01:14:00+00:00,197.0,5.02,200.0,5.47,12.65,47.59359,-54.27349
2021-06-15 01:24:00+00:00,180.0,4.2,185.0,4.84,12.65,47.59359,-54.27349
2021-06-15 01:34:00+00:00,158.0,3.01,158.0,3.33,12.65,47.59359,-54.27349
2021-06-15 01:44:00+00:00,174.0,3.69,174.0,3.92,12.65,47.59359,-54.27349
2021-06-15 01:54:00+00:00,190.0,3.69,187.0,4.23,12.65,47.59359,-54.27349
2021-06-15 02:04:00+00:00,201.0,3.93,203.0,4.23,12.65,47.59359,-54.27349
2021-06-15 02:14:00+00:00,205.0,5.14,200.0,6.77,12.57,47.59359,-54.27349
2021-06-15 02:24:00+00:00,168.0,3.7,166.0,4.13,12.57,47.59359,-54.27349
2021-06-15 02:34:00+00:00,181.0,3.73,186.0,4.32,12.57,47.59359,-54.27349
2021-06-15 02:44:00+00:00,192.0,4.93,193.0,5.62,12.57,47.59359,-54.27349
2021-06-15 02:54:00+00:00,184.0,3.29,183.0,3.62,12.57,47.59359,-54.27349
2021-06-15 03:04:00+00:00,209.0,5.04,208.0,5.88,12.57,47.59359,-54.27349
2021-06-15 03:14:01+00:00,179.0,4.12,181.0,5.34,12.57,47.59359,-54.27349
2021-06-15 03:24:01+00:00,173.0,3.71,173.0,4.03,12.57,47.59359,-54.27349
2021-06-15 03:34:01+00:00,178.0,3.54,177.0,4.09,12.57,47.59359,-54.27349
2021-06-15 03:44:01+00:00,180.0,4.12,180.0,4.46,12.57,47.59359,-54.27349
2021-06-15 03:54:01+00:00,182.0,4.05,181.0,5.57,12.57,47.59359,-54.27349
2021-06-15 04:04:01+00:00,179.0,4.96,181.0,5.32,12.57,47.59359,-54.27349
2021-06-15 04:14:00+00:00,180.0,4.78,181.0,5.0,12.57,47.59359,-54.27349
2021-06-15 04:24:00+00:00,202.0,4.23,194.0,5.87,12.57,47.59359,-54.27349
2021-06-15 04:34:00+00:00,202.0,4.38,199.0,5.71,12.57,47.59359,-54.27349
2021-06-15 04:44:00+00:00,212.0,4.39,213.0,4.87,12.57,47.59359,-54.27349
2021-06-15 04:54:00+00:00,219.0,5.57,218.0,6.14,12.57,47.59359,-54.27349
2021-06-15 05:04:00+00:00,212.0,5.54,212.0,5.95,12.57,47.59359,-54.27349
2021-06-15 05:14:00+00:00,201.0,4.34,202.0,5.16,12.49,47.59359,-54.27349
2021-06-15 05:24:00+00:00,212.0,7.12,212.0,7.53,12.49,47.59359,-54.27349
2021-06-15 05:34:00+00:00,211.0,6.5,215.0,7.49,12.49,47.59359,-54.27349
2021-06-15 05:44:00+00:00,220.0,6.25,230.0,7.21,12.49,47.59359,-54.27349
2021-06-15 05:54:00+00:00,223.0,6.68,218.0,7.36,12.49,47.59359,-54.27349
2021-06-15 06:04:00+00:00,218.0,6.98,214.0,8.49,12.49,47.59359,-54.27349
2021-06-15 06:14:01+00:00,221.0,7.09,223.0,8.1,12.49,47.59359,-54.27349
2021-06-15 06:24:01+00:00,224.0,6.32,216.0,7.32,12.49,47.59359,-54.27349
2021-06-15 06:34:01+00:00,222.0,6.53,222.0,7.32,12.49,47.59359,-54.27349
2021-06-15 06:44:01+00:00,215.0,5.47,215.0,6.0,12.49,47.59359,-54.27349
2021-06-15 06:54:01+00:00,218.0,4.79,221.0,5.43,12.49,47.59359,-54.27349
2021-06-15 07:04:01+00:00,217.0,5.53,217.0,6.15,12.49,47.59359,-54.27349
2021-06-15 07:14:01+00:00,218.0,5.39,220.0,6.13,12.49,47.59359,-54.27349
2021-06-15 07:24:01+00:00,222.0,5.89,221.0,6.61,12.49,47.59359,-54.27349
2021-06-15 07:34:01+00:00,220.0,5.28,222.0,6.15,12.49,47.59359,-54.27349
2021-06-15 07:44:01+00:00,216.0,5.93,216.0,6.38,12.49,47.59359,-54.27349
2021-06-15 07:54:01+00:00,217.0,5.14,219.0,6.16,12.49,47.59359,-54.27349
2021-06-15 08:04:01+00:00,210.0,5.7,216.0,6.51,12.49,47.59359,-54.27349
2021-06-15 08:14:01+00:00,225.0,4.67,232.0,5.84,12.41,47.59359,-54.27349
2021-06-15 08:24:01+00:00,214.0,5.6,214.0,6.17,12.41,47.59359,-54.27349
2021-06-15 08:34:01+00:00,228.0,6.01,225.0,6.59,12.41,47.59359,-54.27349
2021-06-15 08:44:01+00:00,230.0,6.12,227.0,7.0,12.41,47.59359,-54.27349
2021-06-15 08:54:01+00:00,220.0,6.74,216.0,7.61,12.41,47.59359,-54.27349
2021-06-15 09:04:01+00:00,231.0,6.08,229.0,6.68,12.41,47.59359,-54.27349
2021-06-15 09:14:01+00:00,228.0,5.8,232.0,6.72,12.73,47.59359,-54.27349
2021-06-15 09:24:01+00:00,212.0,5.08,213.0,5.73,12.73,47.59359,-54.27349
2021-06-15 09:34:01+00:00,214.0,5.05,217.0,5.64,12.73,47.59359,-54.27349
2021-06-15 09:44:01+00:00,226.0,4.39,225.0,5.34,12.73,47.59359,-54.27349
2021-06-15 09:54:01+00:00,227.0,5.0,226.0,5.46,12.73,47.59359,-54.27349
2021-06-15 10:04:01+00:00,198.0,5.85,195.0,6.59,12.73,47.59359,-54.27349
2021-06-15 10:14:01+00:00,205.0,4.99,212.0,5.75,13.44,47.59359,-54.27349
2021-06-15 10:24:01+00:00,204.0,5.0,208.0,5.79,13.44,47.59359,-54.27349
2021-06-15 10:34:01+00:00,215.0,4.31,218.0,4.98,13.44,47.59359,-54.27349
2021-06-15 10:44:01+00:00,211.0,4.02,213.0,4.4,13.44,47.59359,-54.27349
2021-06-15 10:54:01+00:00,215.0,5.17,220.0,6.16,13.44,47.59359,-54.27349
2021-06-15 11:04:01+00:00,211.0,5.02,207.0,5.77,13.44,47.59359,-54.27349
2021-06-15 11:14:01+00:00,219.0,5.06,221.0,5.64,13.76,47.59359,-54.27349
2021-06-15 11:24:01+00:00,215.0,4.85,224.0,5.58,13.76,47.59359,-54.27349
2021-06-15 11:34:01+00:00,216.0,5.2,215.0,5.84,13.76,47.59359,-54.27349
2021-06-15 11:44:01+00:00,215.0,4.74,218.0,5.31,13.76,47.59359,-54.27349
2021-06-15 11:54:01+00:00,225.0,5.12,221.0,5.74,13.76,47.59359,-54.27349
2021-06-15 12:04:01+00:00,224.0,5.38,226.0,6.07,13.76,47.59359,-54.27349
2021-06-15 12:14:00+00:00,230.0,4.62,232.0,5.37,13.76,47.59359,-54.27349
2021-06-15 12:24:00+00:00,236.0,5.68,242.0,6.84,13.76,47.59359,-54.27349
2021-06-15 12:34:00+00:00,234.0,4.93,234.0,5.52,13.76,47.59359,-54.27349
2021-06-15 12:44:00+00:00,242.0,5.77,244.0,6.16,13.76,47.59359,-54.27349
2021-06-15 12:54:00+00:00,239.0,5.13,240.0,5.64,13.76,47.59359,-54.27349
2021-06-15 13:04:00+00:00,237.0,4.61,239.0,5.02,13.76,47.59359,-54.27349
2021-06-15 13:14:01+00:00,234.0,4.22,229.0,5.44,14.32,47.59359,-54.27349
2021-06-15 13:24:01+00:00,230.0,3.94,234.0,4.39,14.32,47.59359,-54.27349
2021-06-15 13:34:01+00:00,214.0,3.62,216.0,3.87,14.32,47.59359,-54.27349
2021-06-15 13:44:01+00:00,222.0,3.46,222.0,4.19,14.32,47.59359,-54.27349
2021-06-15 13:54:01+00:00,215.0,3.88,213.0,4.36,14.32,47.59359,-54.27349
2021-06-15 14:04:01+00:00,234.0,3.21,234.0,3.64,14.32,47.59359,-54.27349
2021-06-15 14:14:01+00:00,239.0,4.16,236.0,4.92,13.68,47.59359,-54.27349
2021-06-15 14:24:01+00:00,252.0,4.65,252.0,5.37,13.68,47.59359,-54.27349
2021-06-15 14:34:01+00:00,245.0,5.24,249.0,5.85,13.68,47.59359,-54.27349
2021-06-15 14:44:01+00:00,245.0,6.01,246.0,6.59,13.68,47.59359,-54.27349
2021-06-15 14:54:01+00:00,231.0,6.04,227.0,6.53,13.68,47.59359,-54.27349
2021-06-15 15:04:01+00:00,224.0,6.85,224.0,7.82,13.68,47.59359,-54.27349
2021-06-15 15:14:01+00:00,220.0,7.18,219.0,8.13,13.84,47.59359,-54.27349
2021-06-15 15:24:01+00:00,219.0,8.43,220.0,9.78,13.84,47.59359,-54.27349
2021-06-15 15:34:01+00:00,211.0,8.72,213.0,9.94,13.84,47.59359,-54.27349
2021-06-15 15:44:01+00:00,208.0,9.23,209.0,10.03,13.84,47.59359,-54.27349
2021-06-15 15:54:01+00:00,214.0,7.94,220.0,9.32,13.84,47.59359,-54.27349
2021-06-15 16:04:01+00:00,215.0,8.2,213.0,9.73,13.84,47.59359,-54.27349
2021-06-15 16:14:01+00:00,211.0,8.94,214.0,10.72,14.08,47.59359,-54.27349
2021-06-15 16:24:01+00:00,218.0,10.42,223.0,11.71,14.08,47.59359,-54.27349
2021-06-15 16:34:01+00:00,220.0,11.2,217.0,12.17,14.08,47.59359,-54.27349
2021-06-15 16:44:01+00:00,213.0,8.07,211.0,9.41,14.08,47.59359,-54.27349
2021-06-15 16:54:01+00:00,215.0,8.83,212.0,9.92,14.08,47.59359,-54.27349
2021-06-15 17:04:01+00:00,216.0,10.01,219.0,11.62,14.08,47.59359,-54.27349
2021-06-15 17:14:01+00:00,209.0,10.06,209.0,11.64,14.0,47.59359,-54.27349
2021-06-15 17:24:01+00:00,218.0,11.17,219.0,12.49,14.0,47.59359,-54.27349
2021-06-15 17:34:01+00:00,222.0,10.12,220.0,11.25,14.0,47.59359,-54.27349
2021-06-15 17:44:01+00:00,215.0,8.77,214.0,9.92,14.0,47.59359,-54.27349
2021-06-15 17:54:01+00:00,221.0,9.62,224.0,10.7,14.0,47.59359,-54.27349
2021-06-15 18:04:01+00:00,222.0,9.3,225.0,10.59,14.0,47.59359,-54.27349
2021-06-15 18:14:01+00:00,230.0,9.56,232.0,11.54,13.84,47.59359,-54.27349
2021-06-15 18:24:01+00:00,231.0,9.23,236.0,10.92,13.84,47.59359,-54.27349
2021-06-15 18:34:01+00:00,230.0,9.06,230.0,10.12,13.84,47.59359,-54.27349
2021-06-15 18:44:01+00:00,230.0,9.23,235.0,10.17,13.84,47.59359,-54.27349
2021-06-15 18:54:01+00:00,228.0,7.97,223.0,9.18,13.84,47.59359,-54.27349
2021-06-15 19:04:01+00:00,226.0,10.13,225.0,10.87,13.84,47.59359,-54.27349
2021-06-15 19:14:01+00:00,225.0,9.99,224.0,10.69,13.84,47.59359,-54.27349
2021-06-15 19:24:01+00:00,226.0,9.75,225.0,10.74,13.84,47.59359,-54.27349
2021-06-15 19:34:01+00:00,225.0,9.99,224.0,10.86,13.84,47.59359,-54.27349
2021-06-15 19:44:01+00:00,225.0,10.4,226.0,11.42,13.84,47.59359,-54.27349
2021-06-15 19:54:01+00:00,222.0,10.58,219.0,11.9,13.84,47.59359,-54.27349
2021-06-15 20:04:01+00:00,225.0,9.8,220.0,10.99,13.84,47.59359,-54.27349
2021-06-15 20:14:01+00:00,227.0,9.94,223.0,11.15,13.68,47.59359,-54.27349
2021-06-15 20:24:01+00:00,227.0,9.48,223.0,10.8,13.68,47.59359,-54.27349
2021-06-15 20:34:01+00:00,226.0,9.32,225.0,10.48,13.68,47.59359,-54.27349
2021-06-15 20:44:01+00:00,231.0,7.83,226.0,9.28,13.68,47.59359,-54.27349
2021-06-15 20:54:01+00:00,232.0,7.24,236.0,8.34,13.68,47.59359,-54.27349
2021-06-15 21:04:01+00:00,232.0,7.42,238.0,8.63,13.68,47.59359,-54.27349
2021-06-15 21:14:01+00:00,227.0,8.09,228.0,9.42,13.68,47.59359,-54.27349
2021-06-15 21:24:01+00:00,230.0,6.4,231.0,7.19,13.68,47.59359,-54.27349
2021-06-15 21:34:01+00:00,222.0,6.75,219.0,7.71,13.68,47.59359,-54.27349
2021-06-15 21:44:01+00:00,227.0,6.7,220.0,7.81,13.68,47.59359,-54.27349
2021-06-15 21:54:01+00:00,224.0,7.48,216.0,8.79,13.68,47.59359,-54.27349
2021-06-15 22:04:01+00:00,228.0,7.91,230.0,8.6,13.68,47.59359,-54.27349
2021-06-15 22:14:01+00:00,228.0,6.94,230.0,7.76,13.76,47.59359,-54.27349
2021-06-15 22:24:01+00:00,229.0,6.6,221.0,8.63,13.76,47.59359,-54.27349
2021-06-15 22:34:01+00:00,224.0,6.18,228.0,6.97,13.76,47.59359,-54.27349
2021-06-15 22:44:01+00:00,218.0,6.97,218.0,7.57,13.76,47.59359,-54.27349
2021-06-15 22:54:01+00:00,227.0,6.42,227.0,7.72,13.76,47.59359,-54.27349
2021-06-15 23:04:01+00:00,220.0,6.4,216.0,7.3,13.76,47.59359,-54.27349
2021-06-15 23:14:01+00:00,229.0,7.67,229.0,8.66,13.37,47.59359,-54.27349
2021-06-15 23:24:01+00:00,220.0,7.9,214.0,9.29,13.37,47.59359,-54.27349
2021-06-15 23:34:01+00:00,224.0,6.71,228.0,8.57,13.37,47.59359,-54.27349
2021-06-15 23:44:01+00:00,218.0,5.66,215.0,6.3,13.37,47.59359,-54.27349
2021-06-15 23:54:01+00:00,203.0,5.58,198.0,6.74,13.37,47.59359,-54.27349
